SCP
0 0 0 0 0 0 0 0 0 0 0 0 0 0 0 0 0 0 0 0 0 0 0 0 0 -0 0 0 0 0 0 -0 0 -0 -0 0 0 -0 -0 0 0 0 -0
0 0 0 0 0 0 0 1 0 0 0 0 0 0 0 0 0 0 0 0 0 0 0 0 0 0 0 0 0 0 0 0 0 0 0 0 0 0 0 -0 -0 0 0
0 0 0 0 0 0 0 0 0 0 0 0 0 0 0 0 0 0 0 1 0 0 0 0 0 0 0 0 0 0 0 0 0 0 0 0 0 0 0 0 0 -0 -0
0 0 -0 0 0 0 0 0 0 0 0 0 0 0 0 0 0 0 0 1 0 0 0 0 0 0 0 0 0 0 0 0 0 0 0 0 0 0 0 0 0 0 -0
0 0 -0 0 0 0 0 0 0 0 0 0 0 0 0 0 0 0 0 0 1 0 0 0 0 0 0 0 0 0 0 0 0 0 -0 -0 0 0 0 0 0 0 0
0 -0 -0 0 0 0 0 0 0 0 0 0 0 0 0 0 0 0 0 0 0 0 0 0 0 0 0 0 0 0 0 0 0 0 0 0 0 0 -0 0 0 0 0
0 0 0 0 0 0 0 0 0 0 0 0 1 0 0 0 0 0 0 0 0 0 0 0 0 0 0 0 0 0 0 0 0 0 0 0 0 0 0 0 0 0 0
0 0 0 0 0 0 0 0 0 0 0 0 0 1 1 0 0 0 0 0 0 0 0 0 0 0 0 0 0 0 0 0 0 0 0 0 0 0 0 0 0 0 0
0 0 0 0 0 0 0 0 0 0 0 0 0 0 0 0 0 0 0 0 0 0 0 0 0 0 0 0 0 0 0 0 0 0 0 0 0 0 0 0 0 0 0
0 0 0 0 -0 0 0 0 0 0 0 0 0 0 0 0 0 0 0 0 0 0 0 0 0 0 0 0 0 0 0 0 -0 0 0 0 0 0 0 0 0 0 0
0 0 0 0 0 0 0 0 0 0 0 0 0 0 0 0 0 0 0 0 0 0 0 0 0 0 0 0 0 0 0 0 0 0 0 0 0 0 0 0 0 0 0
0 0 0 0 0 0 0 0 0 0 0 0 0 0 0 0 0 1 0 0 0 0 0 0 0 0 0 0 0 0 0 0 0 0 0 0 0 0 0 0 0 0 0
0 0 0 0 0 0 0 0 0 0 0 0 0 0 0 0 0 0 0 0 0 0 0 0 0 0 0 0 0 0 0 0 0 0 0 0 0 0 0 0 0 0 0
0 0 0 0 0 0 0 0 0 0 0 0 0 0 0 0 0 0 0 0 0 0 0 0 0 0 0 0 0 0 0 0 0 0 0 0 0 0 0 0 0 0 0
0 0 0 0 0 0 0 0 0 0 0 0 0 0 0 0 0 0 0 0 0 0 0 0 0 0 0 0 0 0 0 0 0 0 0 0 0 0 0 0 0 0 0
0 0 0 0 0 0 0 0 0 0 0 0 0 0 0 0 0 0 0 0 0 0 0 0 0 0 0 0 0 0 0 0 0 0 0 0 0 0 0 0 0 0 0
0 0 0 0 0 0 0 0 0 0 0 0 0 0 0 0 0 0 0 0 1 0 0 0 0 0 0 0 0 0 0 0 0 0 0 0 0 0 0 0 0 0 0
0 0 0 0 0 0 0 0 0 0 0 0 0 0 0 0 0 0 0 0 1 0 0 0 0 0 0 -0 0 0 0 0 0 0 0 0 0 0 0 0 0 0 0
0 0 0 0 0 0 0 0 0 0 0 0 0 0 0 0 0 0 0 0 0 0 0 0 0 0 0 0 0 0 0 0 0 0 0 0 0 0 0 0 0 0 0
0 0 0 0 0 0 0 0 0 0 0 0 0 0 0 0 0 0 0 0 0 0 0 0 0 0 0 0 0 0 0 0 0 0 0 0 0 0 0 0 0 0 0
0 0 0 0 0 0 0 0 0 0 0 0 0 0 0 0 0 0 0 0 0 0 0 0 0 0 0 0 0 0 0 0 0 0 0 0 0 0 0 0 0 0 0
0 0 0 0 0 0 0 0 0 0 0 0 0 0 0 0 0 0 0 0 0 0 0 0 0 0 0 0 0 0 0 0 0 0 0 0 0 0 0 0 0 0 0
0 0 0 0 0 0 0 0 0 0 0 0 0 0 0 0 0 0 0 0 0 0 0 0 0 0 0 0 0 0 0 0 0 0 0 0 0 0 0 0 0 0 0
0 0 0 0 0 0 0 0 0 0 0 0 0 0 0 0 0 0 0 0 0 0 0 0 0 0 0 0 0 0 0 0 0 0 0 0 0 0 0 0 0 0 0
0 0 0 0 0 0 0 0 0 0 0 0 0 0 0 0 0 0 0 0 0 0 0 0 0 0 0 0 0 0 0 0 0 0 0 0 0 0 0 0 0 0 0
0 0 0 0 0 0 0 0 0 0 0 0 0 0 0 0 0 0 0 0 0 0 0 0 0 0 0 0 0 0 0 0 0 0 0 0 0 0 0 0 0 0 0
Wind_Speed_500mb
43 41 31 18 8 8 14 19 20 21 20 20 20 20 19 21 27 29 32 36 40 40 43 42 40 36 36 36 38 35 30 28 26 21 14 9 10 15 19 24 27 28 29
32 41 32 21 11 14 15 18 22 24 25 26 23 22 21 24 28 31 33 37 37 38 40 40 38 34 34 36 36 35 30 29 24 19 12 9 11 17 23 27 28 25 26
29 39 29 26 15 17 19 19 21 24 26 28 26 25 24 26 30 34 37 38 38 38 38 38 36 31 31 34 34 34 32 28 25 18 13 12 14 19 26 32 30 26 28
29 33 34 26 19 21 24 22 25 24 26 30 32 30 28 29 33 37 40 43 41 40 38 36 33 28 27 31 32 32 31 29 26 20 14 11 15 21 27 30 23 27 30
36 34 35 32 23 24 27 30 24 27 26 31 35 35 34 35 35 37 42 47 45 45 41 40 33 27 25 27 30 32 32 31 26 21 16 10 13 20 27 29 23 24 38
31 43 38 31 31 21 30 32 34 30 30 29 36 40 41 40 39 39 45 47 48 47 44 40 35 27 23 26 28 29 30 30 27 23 27 17 24 24 27 31 33 35 47
26 34 38 29 28 31 27 30 35 34 34 34 37 42 46 46 45 43 44 47 48 48 45 42 37 27 23 23 24 26 28 28 26 26 24 28 34 28 33 38 42 39 37
31 37 41 38 32 29 31 31 27 37 39 41 42 43 47 50 50 49 47 48 49 48 48 46 36 30 24 22 24 26 27 28 27 30 17 29 34 30 38 43 42 38 32
33 43 45 42 45 39 33 32 34 30 34 36 44 44 47 51 53 53 52 50 49 51 51 51 43 34 27 22 25 28 29 30 30 28 27 37 28 35 39 41 35 29 24
33 40 48 51 48 48 46 39 34 35 34 39 41 50 50 51 53 55 55 54 53 54 55 54 47 40 30 23 26 29 30 29 43 26 35 33 32 37 34 31 26 25 22
35 40 42 47 52 48 47 49 40 36 35 38 39 39 46 49 55 55 57 58 57 56 56 58 53 44 32 26 27 30 34 45 39 24 32 36 32 36 32 29 26 23 22
46 45 41 47 48 51 47 45 44 39 35 30 30 36 39 43 53 57 57 60 60 60 60 62 60 51 39 31 31 36 41 48 43 26 33 36 33 35 32 28 21 20 22
46 52 50 52 56 54 52 50 44 42 37 28 23 28 35 32 44 56 52 57 56 56 59 67 75 57 47 37 35 43 46 50 52 34 32 35 31 31 28 24 25 26 27
41 48 52 50 52 59 56 52 49 45 41 39 22 17 20 25 25 30 54 48 44 52 58 64 80 52 51 38 34 45 49 49 50 34 36 33 31 31 32 23 22 26 28
49 53 54 50 50 54 59 55 52 51 47 42 43 24 17 18 18 20 31 46 46 45 47 52 60 47 47 37 37 38 49 48 49 42 44 42 39 35 29 21 20 23 24
50 53 55 54 45 49 51 55 55 55 53 48 46 45 36 21 18 15 19 19 19 27 47 38 25 24 30 37 39 37 39 47 53 49 48 45 39 39 32 26 25 24 26
50 48 51 52 45 48 53 53 44 52 53 48 46 47 45 37 29 20 20 20 22 25 34 26 18 11 23 35 44 41 40 45 49 48 46 42 39 43 40 35 31 31 31
52 49 51 54 55 49 51 55 57 54 50 49 48 48 45 41 33 27 22 26 24 29 33 42 38 40 43 50 40 27 42 44 52 50 48 45 38 49 50 44 38 34 32
51 51 50 53 51 45 46 47 55 49 51 51 36 46 48 46 39 31 28 24 29 30 37 44 37 49 60 54 43 41 48 56 46 44 40 39 40 35 44 47 45 43 39
48 46 42 46 49 47 41 44 51 41 39 43 37 43 48 34 33 47 41 31 26 38 38 42 49 48 56 60 51 52 54 56 55 60 41 39 44 38 38 38 41 49 48
46 44 40 42 48 44 42 40 45 35 34 36 35 34 42 35 38 41 45 46 22 38 44 44 46 50 60 66 54 50 58 55 56 63 66 67 56 50 54 45 44 47 48
49 42 43 41 45 43 39 37 45 42 40 31 35 32 40 33 37 40 45 61 48 44 51 45 49 53 69 62 67 59 43 48 60 63 68 69 71 61 55 62 61 63 64
48 41 41 40 44 41 30 41 39 39 37 31 18 18 25 38 49 50 46 59 63 58 55 52 49 55 58 60 76 47 25 23 51 55 63 68 73 68 66 70 61 66 69
43 39 38 41 38 36 36 35 30 35 30 27 21 15 36 41 44 42 48 50 59 55 52 53 46 51 59 64 63 65 46 38 34 27 47 52 51 55 56 57 62 65 74
41 40 39 41 37 34 31 30 27 28 32 40 27 30 25 36 37 39 40 43 51 56 49 41 45 54 57 61 63 63 64 66 41 38 40 50 54 53 57 60 65 72 72
35 36 38 39 39 34 29 25 25 25 31 34 27 37 36 38 31 30 36 40 44 46 50 54 41 51 57 61 61 65 79 67 54 53 41 59 61 57 61 64 68 67 63
Wind_Direction_500mb
5 344 354 337 321 272 256 264 276 259 235 237 235 235 226 210 189 184 182 180 181 177 177 180 181 180 175 177 178 180 174 182 181 182 183 183 185 180 173 164 159 156 166
4 341 347 348 304 273 269 256 263 269 250 240 234 228 230 208 196 186 186 177 178 175 175 175 179 180 186 187 188 192 197 194 197 199 208 219 198 182 173 166 166 167 170
359 341 350 348 312 279 288 267 256 268 265 248 236 228 225 213 202 193 191 185 181 179 178 179 181 189 188 193 197 203 205 204 206 214 231 229 203 180 172 173 177 169 183
347 339 341 342 320 286 272 276 261 254 261 249 236 229 224 218 209 200 198 193 189 187 187 188 191 200 207 206 207 210 213 214 216 222 224 216 200 178 171 173 175 172 179
346 331 321 329 323 308 277 268 265 254 251 250 240 229 222 220 216 208 206 201 204 204 204 209 207 206 221 217 214 218 219 221 219 209 172 145 254 197 177 177 180 186 178
356 328 321 316 318 304 298 273 267 256 252 244 241 234 227 223 221 216 214 208 209 211 208 208 213 221 222 215 216 220 220 215 208 195 159 190 213 214 188 185 172 154 153
354 330 316 308 307 309 291 287 273 267 249 243 234 235 229 228 226 223 221 216 214 214 212 214 213 224 215 217 216 214 212 208 200 180 164 212 216 199 182 179 168 160 163
339 318 304 309 307 310 310 284 280 267 254 248 235 233 229 228 227 227 227 224 222 220 217 213 219 217 221 220 214 208 205 201 188 159 190 222 204 201 178 171 171 176 182
320 305 309 312 308 306 310 311 290 269 258 259 250 236 233 228 225 226 230 231 228 226 219 217 218 214 218 221 215 212 206 194 176 164 209 221 214 195 181 178 181 192 201
300 297 298 307 305 300 301 304 303 296 269 248 251 245 233 231 230 225 224 228 230 232 225 221 218 213 217 219 213 210 202 187 162 189 211 222 220 188 186 194 202 205 213
305 300 303 300 296 295 293 293 300 297 290 274 245 243 237 233 235 232 228 225 225 230 232 226 218 215 213 218 213 205 195 176 176 189 211 218 214 192 192 200 206 216 222
306 309 307 307 303 294 289 283 288 294 293 282 278 252 236 230 234 236 231 228 228 228 230 229 222 210 205 216 213 201 194 180 178 194 205 220 214 204 201 199 210 234 246
308 307 303 299 300 300 294 284 273 279 281 286 273 262 250 243 232 236 236 234 233 230 231 228 212 207 203 204 218 208 197 189 191 201 194 211 225 220 210 228 243 244 250
311 298 301 303 297 293 294 290 276 264 268 267 269 255 258 253 252 236 233 232 231 230 233 234 217 216 197 199 215 215 204 200 195 201 203 210 225 233 230 237 240 237 236
303 303 302 300 296 294 291 291 282 266 254 259 259 250 246 245 250 252 233 235 235 231 227 222 213 199 191 191 206 217 211 209 198 205 214 220 230 227 223 229 227 218 222
303 305 305 302 295 292 286 284 285 273 257 248 254 248 248 251 249 237 229 229 212 223 226 203 145 190 175 182 205 216 217 216 207 207 216 217 224 220 219 220 226 231 229
307 305 303 303 294 281 279 277 276 277 267 248 241 249 243 241 246 251 223 225 193 199 193 191 155 155 212 220 203 213 226 225 222 222 223 221 223 215 219 224 225 229 232
305 303 301 300 295 285 282 277 268 266 260 249 242 238 242 238 228 238 241 225 217 214 204 218 198 199 223 210 210 213 223 224 226 219 215 216 223 211 221 226 230 234 239
306 308 305 301 304 300 287 286 276 271 259 246 251 237 233 234 229 228 252 247 218 226 227 227 227 227 210 206 206 216 209 214 222 232 228 231 231 212 222 232 239 243 245
310 309 303 304 300 300 287 290 278 273 255 239 239 243 236 238 238 235 236 256 246 222 233 230 225 231 214 203 213 215 210 221 220 225 238 248 238 233 234 238 240 244 244
310 311 311 303 303 293 283 286 281 273 235 225 230 235 240 234 243 237 224 236 254 239 236 234 231 224 216 209 211 214 217 208 211 218 231 241 256 254 242 246 241 243 244
312 311 310 303 297 291 275 275 276 281 237 216 210 220 228 227 221 235 230 234 241 250 238 236 233 220 210 223 210 208 194 202 223 215 211 219 219 225 230 246 243 236 236
313 314 314 309 304 296 272 265 273 279 260 235 215 209 213 213 224 231 226 220 222 233 224 227 229 228 218 206 211 199 181 202 204 208 225 223 226 227 223 227 223 228 233
314 314 314 311 304 298 273 266 262 268 261 211 205 175 205 214 225 221 222 221 226 231 223 218 231 229 224 218 206 215 219 214 192 194 202 203 205 215 217 206 204 225 207
321 324 323 315 306 298 286 264 255 253 251 215 208 204 214 231 227 231 236 231 230 237 226 219 225 233 231 222 220 213 232 218 214 200 197 205 210 212 208 204 199 204 207
319 316 319 324 315 305 291 265 245 242 242 223 220 216 233 242 243 242 245 246 244 242 235 223 233 229 233 236 228 223 224 216 221 211 209 207 215 210 209 211 208 205 206
Wind_Speed_850mb
43 41 31 18 8 8 14 19 20 21 20 20 20 20 19 21 27 29 32 36 40 40 43 42 40 36 36 36 38 35 30 28 26 21 14 9 10 15 19 24 27 28 29
32 41 32 21 11 14 15 18 22 24 25 26 23 22 21 24 28 31 33 37 37 38 40 40 38 34 34 36 36 35 30 29 24 19 12 9 11 17 23 27 28 25 26
29 39 29 26 15 17 19 19 21 24 26 28 26 25 24 26 30 34 37 38 38 38 38 38 36 31 31 34 34 34 32 28 25 18 13 12 14 19 26 32 30 26 28
29 33 34 26 19 21 24 22 25 24 26 30 32 30 28 29 33 37 40 43 41 40 38 36 33 28 27 31 32 32 31 29 26 20 14 11 15 21 27 30 23 27 30
36 34 35 32 23 24 27 30 24 27 26 31 35 35 34 35 35 37 42 47 45 45 41 40 33 27 25 27 30 32 32 31 26 21 16 10 13 20 27 29 23 24 38
31 43 38 31 31 21 30 32 34 30 30 29 36 40 41 40 39 39 45 47 48 47 44 40 35 27 23 26 28 29 30 30 27 23 27 17 24 24 27 31 33 35 47
26 34 38 29 28 31 27 30 35 34 34 34 37 42 46 46 45 43 44 47 48 48 45 42 37 27 23 23 24 26 28 28 26 26 24 28 34 28 33 38 42 39 37
31 37 41 38 32 29 31 31 27 37 39 41 42 43 47 50 50 49 47 48 49 48 48 46 36 30 24 22 24 26 27 28 27 30 17 29 34 30 38 43 42 38 32
33 43 45 42 45 39 33 32 34 30 34 36 44 44 47 51 53 53 52 50 49 51 51 51 43 34 27 22 25 28 29 30 30 28 27 37 28 35 39 41 35 29 24
33 40 48 51 48 48 46 39 34 35 34 39 41 50 50 51 53 55 55 54 53 54 55 54 47 40 30 23 26 29 30 29 43 26 35 33 32 37 34 31 26 25 22
35 40 42 47 52 48 47 49 40 36 35 38 39 39 46 49 55 55 57 58 57 56 56 58 53 44 32 26 27 30 34 45 39 24 32 36 32 36 32 29 26 23 22
46 45 41 47 48 51 47 45 44 39 35 30 30 36 39 43 53 57 57 60 60 60 60 62 60 51 39 31 31 36 41 48 43 26 33 36 33 35 32 28 21 20 22
46 52 50 52 56 54 52 50 44 42 37 28 23 28 35 32 44 56 52 57 56 56 59 67 75 57 47 37 35 43 46 50 52 34 32 35 31 31 28 24 25 26 27
41 48 52 50 52 59 56 52 49 45 41 39 22 17 20 25 25 30 54 48 44 52 58 64 80 52 51 38 34 45 49 49 50 34 36 33 31 31 32 23 22 26 28
49 53 54 50 50 54 59 55 52 51 47 42 43 24 17 18 18 20 31 46 46 45 47 52 60 47 47 37 37 38 49 48 49 42 44 42 39 35 29 21 20 23 24
50 53 55 54 45 49 51 55 55 55 53 48 46 45 36 21 18 15 19 19 19 27 47 38 25 24 30 37 39 37 39 47 53 49 48 45 39 39 32 26 25 24 26
50 48 51 52 45 48 53 53 44 52 53 48 46 47 45 37 29 20 20 20 22 25 34 26 18 11 23 35 44 41 40 45 49 48 46 42 39 43 40 35 31 31 31
52 49 51 54 55 49 51 55 57 54 50 49 48 48 45 41 33 27 22 26 24 29 33 42 38 40 43 50 40 27 42 44 52 50 48 45 38 49 50 44 38 34 32
51 51 50 53 51 45 46 47 55 49 51 51 36 46 48 46 39 31 28 24 29 30 37 44 37 49 60 54 43 41 48 56 46 44 40 39 40 35 44 47 45 43 39
48 46 42 46 49 47 41 44 51 41 39 43 37 43 48 34 33 47 41 31 26 38 38 42 49 48 56 60 51 52 54 56 55 60 41 39 44 38 38 38 41 49 48
46 44 40 42 48 44 42 40 45 35 34 36 35 34 42 35 38 41 45 46 22 38 44 44 46 50 60 66 54 50 58 55 56 63 66 67 56 50 54 45 44 47 48
49 42 43 41 45 43 39 37 45 42 40 31 35 32 40 33 37 40 45 61 48 44 51 45 49 53 69 62 67 59 43 48 60 63 68 69 71 61 55 62 61 63 64
48 41 41 40 44 41 30 41 39 39 37 31 18 18 25 38 49 50 46 59 63 58 55 52 49 55 58 60 76 47 25 23 51 55 63 68 73 68 66 70 61 66 69
43 39 38 41 38 36 36 35 30 35 30 27 21 15 36 41 44 42 48 50 59 55 52 53 46 51 59 64 63 65 46 38 34 27 47 52 51 55 56 57 62 65 74
41 40 39 41 37 34 31 30 27 28 32 40 27 30 25 36 37 39 40 43 51 56 49 41 45 54 57 61 63 63 64 66 41 38 40 50 54 53 57 60 65 72 72
35 36 38 39 39 34 29 25 25 25 31 34 27 37 36 38 31 30 36 40 44 46 50 54 41 51 57 61 61 65 79 67 54 53 41 59 61 57 61 64 68 67 63
Wind_Direction_850mb
5 344 354 337 321 272 256 264 276 259 235 237 235 235 226 210 189 184 182 180 181 177 177 180 181 180 175 177 178 180 174 182 181 182 183 183 185 180 173 164 159 156 166
4 341 347 348 304 273 269 256 263 269 250 240 234 228 230 208 196 186 186 177 178 175 175 175 179 180 186 187 188 192 197 194 197 199 208 219 198 182 173 166 166 167 170
359 341 350 348 312 279 288 267 256 268 265 248 236 228 225 213 202 193 191 185 181 179 178 179 181 189 188 193 197 203 205 204 206 214 231 229 203 180 172 173 177 169 183
347 339 341 342 320 286 272 276 261 254 261 249 236 229 224 218 209 200 198 193 189 187 187 188 191 200 207 206 207 210 213 214 216 222 224 216 200 178 171 173 175 172 179
346 331 321 329 323 308 277 268 265 254 251 250 240 229 222 220 216 208 206 201 204 204 204 209 207 206 221 217 214 218 219 221 219 209 172 145 254 197 177 177 180 186 178
356 328 321 316 318 304 298 273 267 256 252 244 241 234 227 223 221 216 214 208 209 211 208 208 213 221 222 215 216 220 220 215 208 195 159 190 213 214 188 185 172 154 153
354 330 316 308 307 309 291 287 273 267 249 243 234 235 229 228 226 223 221 216 214 214 212 214 213 224 215 217 216 214 212 208 200 180 164 212 216 199 182 179 168 160 163
339 318 304 309 307 310 310 284 280 267 254 248 235 233 229 228 227 227 227 224 222 220 217 213 219 217 221 220 214 208 205 201 188 159 190 222 204 201 178 171 171 176 182
320 305 309 312 308 306 310 311 290 269 258 259 250 236 233 228 225 226 230 231 228 226 219 217 218 214 218 221 215 212 206 194 176 164 209 221 214 195 181 178 181 192 201
300 297 298 307 305 300 301 304 303 296 269 248 251 245 233 231 230 225 224 228 230 232 225 221 218 213 217 219 213 210 202 187 162 189 211 222 220 188 186 194 202 205 213
305 300 303 300 296 295 293 293 300 297 290 274 245 243 237 233 235 232 228 225 225 230 232 226 218 215 213 218 213 205 195 176 176 189 211 218 214 192 192 200 206 216 222
306 309 307 307 303 294 289 283 288 294 293 282 278 252 236 230 234 236 231 228 228 228 230 229 222 210 205 216 213 201 194 180 178 194 205 220 214 204 201 199 210 234 246
308 307 303 299 300 300 294 284 273 279 281 286 273 262 250 243 232 236 236 234 233 230 231 228 212 207 203 204 218 208 197 189 191 201 194 211 225 220 210 228 243 244 250
311 298 301 303 297 293 294 290 276 264 268 267 269 255 258 253 252 236 233 232 231 230 233 234 217 216 197 199 215 215 204 200 195 201 203 210 225 233 230 237 240 237 236
303 303 302 300 296 294 291 291 282 266 254 259 259 250 246 245 250 252 233 235 235 231 227 222 213 199 191 191 206 217 211 209 198 205 214 220 230 227 223 229 227 218 222
303 305 305 302 295 292 286 284 285 273 257 248 254 248 248 251 249 237 229 229 212 223 226 203 145 190 175 182 205 216 217 216 207 207 216 217 224 220 219 220 226 231 229
307 305 303 303 294 281 279 277 276 277 267 248 241 249 243 241 246 251 223 225 193 199 193 191 155 155 212 220 203 213 226 225 222 222 223 221 223 215 219 224 225 229 232
305 303 301 300 295 285 282 277 268 266 260 249 242 238 242 238 228 238 241 225 217 214 204 218 198 199 223 210 210 213 223 224 226 219 215 216 223 211 221 226 230 234 239
306 308 305 301 304 300 287 286 276 271 259 246 251 237 233 234 229 228 252 247 218 226 227 227 227 227 210 206 206 216 209 214 222 232 228 231 231 212 222 232 239 243 245
310 309 303 304 300 300 287 290 278 273 255 239 239 243 236 238 238 235 236 256 246 222 233 230 225 231 214 203 213 215 210 221 220 225 238 248 238 233 234 238 240 244 244
310 311 311 303 303 293 283 286 281 273 235 225 230 235 240 234 243 237 224 236 254 239 236 234 231 224 216 209 211 214 217 208 211 218 231 241 256 254 242 246 241 243 244
312 311 310 303 297 291 275 275 276 281 237 216 210 220 228 227 221 235 230 234 241 250 238 236 233 220 210 223 210 208 194 202 223 215 211 219 219 225 230 246 243 236 236
313 314 314 309 304 296 272 265 273 279 260 235 215 209 213 213 224 231 226 220 222 233 224 227 229 228 218 206 211 199 181 202 204 208 225 223 226 227 223 227 223 228 233
314 314 314 311 304 298 273 266 262 268 261 211 205 175 205 214 225 221 222 221 226 231 223 218 231 229 224 218 206 215 219 214 192 194 202 203 205 215 217 206 204 225 207
321 324 323 315 306 298 286 264 255 253 251 215 208 204 214 231 227 231 236 231 230 237 226 219 225 233 231 222 220 213 232 218 214 200 197 205 210 212 208 204 199 204 207
319 316 319 324 315 305 291 265 245 242 242 223 220 216 233 242 243 242 245 246 244 242 235 223 233 229 233 236 228 223 224 216 221 211 209 207 215 210 209 211 208 205 206